Wind_Speed
64 64 63 62 61 59 57 56 54 53 52 51 51 51 52 54 54 56 58 58 59 61 61 57 57 58 59 59 59 58 59 60 60 60 60 60 60 61 61 61 61 62 62 63 65 66 67 68 68 68 68 67 67 66 66 66 65 64 63 61 60 60 59 59 59 59 58 57 57 57 57 58 59 61 62 65 67 69 71 73 74 76 77 77 78 77 75
66 65 65 64 63 61 60 58 56 55 54 54 54 54 55 56 56 58 59 59 60 62 62 60 60 60 60 61 61 61 61 62 63 63 64 63 63 63 63 63 63 64 65 66 67 68 69 70 71 70 70 69 68 67 68 68 66 66 65 63 62 61 60 60 59 59 58 58 58 57 58 59 61 63 65 67 68 70 73 75 77 79 80 80 81 81 79
67 67 66 66 65 63 62 60 58 56 56 57 57 56 57 58 58 59 60 59 61 63 63 62 62 62 62 63 63 63 64 64 65 65 66 66 66 66 66 66 66 66 67 68 69 71 72 72 73 72 72 70 68 69 70 69 68 67 66 65 64 62 61 60 60 59 60 60 59 59 59 61 63 65 67 68 70 72 75 77 79 81 82 83 84 84 83
68 69 68 67 67 65 64 61 59 59 60 60 59 58 58 59 60 60 60 60 61 62 63 63 63 63 63 63 64 64 65 66 66 66 66 67 67 68 68 68 68 69 70 71 71 72 73 74 74 74 73 71 70 71 71 70 69 68 68 67 65 63 62 61 60 60 60 60 60 60 60 62 66 68 68 69 71 74 77 79 82 83 84 85 85 86 85
70 71 70 69 68 66 64 62 62 63 63 63 61 60 61 61 61 61 60 61 62 63 63 63 63 64 64 64 64 65 66 67 67 67 67 68 68 69 70 71 71 72 72 73 74 75 75 76 76 75 74 73 72 72 72 71 70 69 68 68 66 65 63 62 61 61 61 61 61 61 62 64 67 68 69 71 73 75 79 81 83 84 85 86 87 87 87
72 73 72 70 69 67 65 65 66 66 66 65 63 62 62 62 61 61 62 63 63 64 63 64 64 65 65 65 66 66 67 67 67 68 68 69 69 70 72 73 73 74 75 75 76 77 77 77 77 76 75 74 74 74 73 72 70 69 69 69 67 66 64 63 63 62 62 62 62 63 64 66 67 68 69 72 74 77 80 83 84 86 87 88 88 89 88
74 74 74 71 69 68 68 68 69 68 67 67 65 64 64 63 62 63 64 65 65 65 66 66 66 67 67 68 68 68 68 68 68 69 70 70 71 72 73 74 76 76 77 77 78 78 78 78 78 77 77 76 76 75 74 73 71 70 70 69 68 67 65 64 63 63 62 63 63 65 66 67 68 69 70 73 76 79 81 84 85 87 89 90 90 90 89
75 75 74 72 71 71 70 70 70 69 69 69 67 65 66 66 64 66 68 68 68 68 69 69 68 69 69 70 70 69 69 69 70 71 71 71 72 73 74 76 77 78 79 79 79 80 80 80 79 79 78 78 78 77 76 74 73 72 71 69 68 67 66 65 64 63 63 64 65 66 67 68 69 71 72 74 77 81 83 85 86 88 89 90 90 90 90
76 76 75 75 75 73 71 71 71 70 70 70 68 67 68 68 68 69 70 70 70 71 71 71 71 71 71 72 71 70 71 71 72 72 72 73 74 75 76 78 79 80 81 81 81 81 82 82 81 81 80 80 79 79 77 75 74 73 71 69 69 68 67 65 64 64 64 64 65 66 67 69 71 73 74 77 79 82 85 87 87 88 89 90 90 90 90
77 76 76 77 76 74 73 73 72 70 70 70 69 68 69 70 70 71 73 73 73 73 72 73 73 73 74 73 72 72 73 73 73 73 73 75 76 77 79 79 80 81 82 83 83 83 83 83 83 82 82 81 80 80 79 77 76 74 72 70 69 69 68 66 65 64 64 64 65 67 69 71 73 75 77 79 82 84 87 89 89 89 90 90 90 90 89
78 77 77 78 76 75 75 74 72 71 71 71 70 69 70 72 72 73 75 76 75 75 75 75 76 75 75 75 74 74 75 75 75 75 76 77 78 80 81 82 82 83 84 84 85 85 85 85 84 84 83 82 82 81 80 79 77 75 73 71 70 70 68 66 65 64 65 65 66 69 71 73 76 78 80 82 84 86 89 90 91 91 90 90 89 89 87
79 79 78 77 76 76 76 75 74 72 72 72 71 70 72 74 74 74 78 79 77 77 77 77 77 76 76 77 77 76 77 77 78 78 79 80 81 82 84 84 85 85 85 85 86 86 87 86 86 86 85 84 83 82 81 81 78 76 73 71 71 70 69 67 65 65 66 67 69 71 73 75 78 81 83 85 86 88 91 92 92 91 90 89 87 86 82
80 80 79 77 77 77 76 76 75 74 73 73 72 71 74 76 75 75 78 79 79 79 78 78 78 78 78 78 79 79 79 79 80 81 82 83 83 85 86 87 87 87 87 87 87 87 88 87 87 87 86 84 83 82 81 80 79 76 73 72 71 71 70 67 66 67 68 69 71 73 75 78 80 82 85 86 88 89 91 93 92 91 90 88 86 82 77
80 80 79 78 78 77 77 78 77 74 73 73 73 73 75 76 76 76 78 79 80 80 80 79 79 79 80 81 81 81 81 82 82 83 84 84 85 86 88 89 89 88 88 88 88 88 88 88 88 88 87 86 84 82 80 79 78 75 74 72 71 70 70 69 69 70 71 72 73 75 77 79 82 84 87 88 89 90 92 92 92 91 89 87 83 78 73
80 80 80 80 79 78 78 78 77 75 74 74 74 75 76 77 77 78 79 80 80 81 81 81 81 81 82 83 83 83 84 84 85 85 86 86 87 88 89 90 90 90 89 89 89 89 89 89 89 89 88 86 84 82 80 78 76 74 73 71 70 70 71 71 72 72 73 75 76 78 79 81 83 86 88 90 91 92 92 92 91 90 88 84 79 73 67
81 82 82 82 81 80 79 78 77 76 76 76 76 76 77 78 79 79 80 81 81 81 82 82 82 83 84 85 85 86 87 87 87 87 88 88 88 89 90 91 91 90 90 90 90 90 90 90 90 89 88 86 84 82 80 78 76 74 72 71 71 71 72 72 73 74 76 78 79 81 82 84 86 88 90 92 93 93 93 92 90 88 84 79 74 68 62
83 84 84 84 82 81 80 79 78 78 78 78 77 78 78 79 80 80 81 81 82 83 83 84 84 85 86 87 87 88 89 89 89 89 89 89 90 91 91 92 92 92 92 92 92 91 91 91 90 89 88 86 84 82 80 78 76 74 73 72 72 72 73 74 75 77 79 80 82 84 85 87 88 90 92 94 95 94 93 91 88 85 80 74 69 64 56
85 85 85 84 83 82 81 81 80 79 79 79 80 80 80 81 82 82 83 83 84 85 85 86 86 87 87 88 89 89 89 90 90 90 90 91 92 92 93 93 93 93 93 93 92 92 92 91 90 89 88 86 84 82 79 77 76 75 74 75 75 75 76 77 78 80 83 84 86 87 88 89 90 91 92 94 94 94 92 89 86 81 75 68 63 58 51
86 87 86 83 83 84 84 83 82 81 81 81 82 82 83 83 84 84 84 85 86 86 87 88 88 89 89 89 90 90 90 90 90 91 92 92 93 94 95 95 94 94 93 93 93 92 92 90 89 88 87 86 84 80 76 75 75 75 76 76 78 78 79 80 82 84 86 87 89 90 91 92 92 92 93 94 93 93 91 87 81 76 70 63 58 53 46
88 89 87 84 85 87 87 85 84 83 83 83 84 84 85 85 85 85 85 86 86 87 88 88 89 90 90 90 91 91 91 92 92 92 93 94 95 96 96 96 95 94 94 94 94 93 91 90 89 88 86 84 82 78 75 75 76 77 78 79 80 81 82 84 85 87 89 90 91 92 93 94 94 93 93 92 91 91 88 82 75 70 64 57 53 48 41
90 91 88 86 87 88 87 87 86 86 86 86 86 86 86 87 87 87 86 86 87 87 88 89 90 91 92 92 93 93 93 94 95 95 95 95 96 96 96 95 95 96 96 96 94 92 91 89 88 86 84 82 79 77 76 76 77 78 80 81 83 84 85 87 88 90 91 92 93 94 94 95 95 93 92 91 89 87 84 78 71 65 57 51 47 43 37
91 90 88 87 88 88 88 89 89 88 88 89 88 88 88 88 88 88 88 88 88 88 89 90 91 93 94 95 95 96 96 96 96 96 96 96 96 96 96 96 96 97 97 95 93 91 89 87 85 83 81 80 78 77 78 78 79 80 82 84 86 87 88 90 91 92 93 94 95 96 96 95 95 93 91 90 87 83 80 74 65 56 49 44 42 38 34
91 90 89 88 89 90 91 92 91 90 90 90 90 90 90 90 90 91 90 90 90 91 92 93 94 96 97 97 98 98 98 97 97 97 97 97 98 98 98 98 97 96 95 94 92 89 87 84 82 80 79 78 78 79 80 81 82 83 84 86 88 89 90 92 93 94 95 95 95 96 96 95 94 91 89 87 82 76 73 66 56 47 41 38 36 34 31
91 90 90 90 91 92 93 94 94 92 92 91 91 92 92 92 92 93 93 93 94 94 95 96 97 98 99 100 100 99 99 98 98 98 98 98 99 99 99 99 97 96 94 91 89 86 83 81 79 79 78 79 80 82 83 84 85 86 87 88 90 91 92 93 94 95 96 96 96 95 95 94 92 90 86 81 75 68 63 56 49 43 37 34 33 31 28
91 91 90 91 92 93 94 94 94 94 94 94 94 95 94 94 95 95 95 96 96 97 97 97 99 100 100 101 101 100 99 99 99 99 99 99 99 99 98 98 96 94 91 88 85 83 81 79 79 79 80 82 83 84 86 87 88 89 90 91 92 93 94 95 95 96 97 96 95 95 93 92 90 87 82 75 68 60 54 48 44 41 37 33 31 30 27
91 91 91 91 92 93 94 94 94 95 96 96 96 97 97 97 97 98 98 98 97 98 98 98 99 100 100 100 101 101 100 100 99 99 99 99 99 98 96 95 93 90 87 85 83 82 81 81 81 82 83 84 85 87 89 90 91 92 92 93 94 95 96 96 96 96 96 95 94 93 91 88 86 83 78 69 60 52 46 43 41 40 38 34 31 28 27
92 92 92 93 94 94 95 95 96 97 97 98 97 98 98 98 99 99 98 98 97 98 99 100 100 100 100 100 101 101 101 100 100 99 99 98 97 95 93 91 88 86 85 84 83 83 83 84 85 85 86 87 88 89 91 92 93 94 94 95 96 97 97 97 97 96 95 94 92 90 87 84 81 78 73 65 54 46 42 39 37 37 37 35 32 29 27
95 95 95 94 95 95 96 96 97 98 98 99 98 98 98 99 99 99 100 99 99 100 101 101 102 102 102 101 101 100 100 100 99 98 97 95 93 91 89 87 85 85 85 85 86 86 87 87 87 88 88 89 90 91 93 94 95 95 96 97 97 97 97 97 96 95 93 91 88 86 84 80 76 71 66 60 52 45 41 38 35 34 35 36 35 32 29
97 97 96 96 95 96 97 98 98 98 99 99 99 99 99 99 100 100 101 101 100 101 102 103 103 103 102 101 100 99 98 97 95 94 92 91 89 88 87 86 86 86 87 88 89 89 89 89 90 90 90 91 92 93 95 96 96 97 97 97 97 97 96 95 94 92 90 87 85 82 79 75 70 65 59 54 49 44 40 37 34 33 34 35 36 35 33
97 97 97 97 96 96 97 98 99 100 100 100 100 100 100 100 100 101 102 101 101 101 102 102 103 101 100 98 97 95 93 91 90 89 89 88 88 88 88 88 88 89 90 91 91 91 92 92 92 92 93 93 94 95 96 97 97 97 97 96 96 95 93 92 91 89 86 84 81 77 74 69 65 59 54 50 46 43 39 36 34 34 34 36 37 38 38
95 96 96 96 96 96 96 96 97 98 99 100 100 100 99 99 99 99 100 99 98 97 97 99 99 98 96 94 92 89 89 88 88 88 89 89 89 90 90 90 91 92 93 93 93 93 94 94 94 94 95 95 96 96 96 96 96 96 95 94 93 92 90 88 87 85 82 80 76 73 68 64 60 55 50 47 44 41 38 35 35 36 36 37 39 41 42
90 91 92 92 92 92 92 92 93 94 95 96 96 96 95 95 94 94 94 94 92 91 92 94 96 95 94 92 90 88 89 89 89 89 90 90 91 92 93 94 94 95 95 95 95 95 95 95 95 95 95 95 95 95 95 94 94 93 92 91 89 88 86 84 83 80 78 75 72 68 64 59 55 51 47 44 43 40 37 35 35 37 38 39 40 43 45
85 86 87 88 88 88 88 89 89 89 90 91 91 91 91 91 91 91 91 91 90 89 90 93 95 96 95 93 90 88 89 90 90 91 92 93 94 95 96 96 97 97 97 97 96 95 95 95 95 94 94 94 93 93 92 92 91 90 88 87 86 84 82 80 78 76 73 71 68 65 61 56 52 49 46 43 39 37 36 35 35 36 38 39 42 46 48
83 84 85 86 86 86 86 87 87 87 88 89 89 90 90 90 91 91 91 91 92 92 92 94 96 96 96 95 92 90 91 92 93 93 94 95 96 97 98 98 99 99 98 97 96 96 95 94 93 93 92 91 91 90 89 88 87 86 85 83 81 79 77 75 73 71 69 67 64 61 58 53 49 47 46 42 38 35 34 35 35 36 37 39 42 45 48
84 85 85 85 86 86 86 87 88 88 88 88 89 90 91 92 92 93 93 93 93 93 94 95 96 98 98 97 95 94 94 95 95 95 95 96 97 98 99 99 99 98 97 96 96 95 94 92 91 90 89 89 88 86 85 84 83 81 80 78 76 74 71 69 68 66 65 63 60 58 56 52 48 46 44 42 39 35 33 33 34 35 37 39 40 41 43
87 87 87 87 87 87 88 88 89 89 90 90 90 91 92 93 94 95 95 95 95 95 94 94 95 97 97 95 94 94 96 96 96 95 95 96 97 97 98 97 97 96 96 96 95 93 92 90 88 87 86 84 83 81 81 79 77 76 74 72 71 69 67 65 64 62 60 58 56 55 54 52 50 46 42 40 39 37 34 33 33 34 36 38 40 40 41
89 89 89 89 89 89 90 90 91 91 92 93 94 94 95 95 96 97 97 98 98 97 96 95 95 96 96 96 96 98 98 98 97 95 95 95 96 96 96 96 95 95 95 93 92 90 87 85 83 82 81 80 78 77 76 74 72 70 69 67 66 64 62 61 59 58 56 54 53 53 52 52 51 48 43 38 37 37 36 34 34 34 36 38 40 41 42
91 91 91 90 91 91 92 92 92 92 93 94 96 97 98 98 99 99 99 99 99 99 98 97 97 97 97 98 99 99 98 97 96 95 95 94 95 95 95 94 94 93 91 89 87 84 81 79 78 77 76 75 73 72 70 68 66 65 63 62 60 59 57 56 54 53 52 51 51 52 52 51 50 48 44 39 36 35 35 35 35 36 37 38 39 40 42
92 92 92 92 92 93 93 93 93 93 94 95 96 98 99 100 100 100 100 100 100 100 99 98 97 97 96 97 97 95 94 93 93 93 92 92 92 92 91 90 88 87 85 83 80 76 74 73 73 73 71 69 67 65 63 62 60 59 58 56 54 53 52 51 50 50 50 51 51 51 51 51 49 47 44 41 38 35 34 34 35 36 37 38 39 40 41
91 92 92 91 91 92 93 93 93 93 94 95 96 97 98 99 99 99 99 99 99 98 97 96 96 96 95 94 93 92 90 89 88 88 87 87 86 86 85 83 82 81 79 76 73 70 69 69 68 66 64 62 60 59 58 56 55 53 52 50 49 48 47 47 48 48 49 51 51 51 50 49 47 45 43 42 39 36 34 34 34 34 35 37 38 39 40
86 87 87 87 87 88 89 90 91 92 92 93 94 95 96 96 96 97 97 97 97 96 96 95 95 94 92 90 88 87 85 83 82 80 80 79 79 80 79 77 76 74 73 70 68 66 65 64 61 59 57 56 55 54 53 51 50 48 47 46 45 45 45 46 47 48 49 50 50 50 48 46 45 43 41 40 39 37 35 34 34 34 34 35 36 37 38
82 83 84 84 85 85 87 88 89 90 91 91 91 92 92 93 93 93 94 93 93 92 91 91 90 88 86 83 80 78 76 75 74 73 73 73 73 73 73 72 71 69 68 66 65 63 60 57 55 54 52 51 50 49 48 47 46 45 44 44 44 44 45 46 47 48 49 48 47 46 44 43 41 39 38 37 37 36 35 34 33 33 33 34 35 35 36
77 78 79 80 80 81 82 83 84 84 85 85 85 86 86 86 86 86 86 85 84 82 80 79 78 77 75 73 71 69 68 68 67 67 67 68 67 67 67 67 66 65 64 62 59 56 54 52 50 49 48 47 46 45 45 45 44 44 44 44 44 44 45 46 46 46 45 44 43 41 39 38 36 35 34 34 34 34 34 33 32 32 33 33 34 35 35
67 69 70 70 70 72 73 73 74 74 75 75 74 74 74 75 75 74 73 72 71 69 66 65 65 65 64 64 63 63 63 62 62 61 61 62 61 61 61 61 61 60 59 56 53 50 48 46 45 44 44 44 44 44 44 44 45 44 44 44 44 45 45 44 43 42 41 39 38 36 35 34 33 32 31 31 31 32 32 32 32 32 32 33 33 34 34
58 59 60 60 60 62 63 63 63 64 64 63 63 63 62 62 62 62 61 60 59 58 57 55 55 56 57 57 57 58 57 56 56 55 55 55 55 56 57 57 56 54 52 49 47 45 43 42 42 42 43 44 44 45 45 45 45 44 43 43 42 42 41 40 39 38 36 35 33 32 32 31 31 30 30 30 31 31 32 33 33 33 34 34 34 34 35
48 49 50 50 51 53 54 55 55 56 55 55 55 55 55 55 55 54 53 52 51 50 50 49 49 50 51 51 51 51 51 50 50 51 51 52 52 52 52 51 49 47 45 44 42 41 41 42 43 44 44 45 45 45 45 44 43 42 40 39 39 38 37 36 35 34 32 31 30 30 29 29 30 30 31 31 32 33 33 34 35 35 36 36 37 37 37
40 41 42 43 44 46 47 48 49 49 49 48 48 48 48 47 46 45 45 45 44 45 45 45 45 45 46 46 46 47 47 48 48 49 48 48 47 46 45 44 43 42 41 41 41 41 43 44 45 45 44 44 43 43 42 41 40 38 37 36 35 34 33 32 31 30 29 29 29 29 29 30 30 31 32 33 34 35 36 36 36 37 38 38 39 39 39
33 34 35 36 37 38 38 39 39 38 37 37 37 38 39 39 38 38 39 40 41 41 41 41 41 42 42 43 43 44 44 44 43 43 42 41 41 41 41 41 41 40 40 41 42 43 44 44 44 43 41 41 40 40 39 38 36 34 33 32 31 30 30 29 29 29 29 29 29 29 30 31 31 32 34 34 35 36 36 37 37 37 38 38 39 39 40
25 26 26 25 25 26 26 26 25 23 22 23 26 29 31 32 34 35 36 38 39 39 39 40 40 40 40 40 40 40 39 39 38 37 37 38 38 39 40 40 40 40 40 40 41 42 42 42 41 39 38 36 36 35 34 33 32 31 31 30 29 29 28 29 29 29 29 29 29 30 30 31 32 33 33 34 34 35 35 35 35 35 36 36 36 37 37
15 15 15 14 14 14 14 15 17 19 21 24 26 28 30 32 34 35 36 37 38 38 39 39 39 39 38 38 37 37 36 36 36 36 37 38 39 39 40 40 39 38 37 37 37 38 39 38 37 35 34 33 32 31 31 31 31 31 30 30 29 29 29 29 29 29 29 29 29 30 31 31 32 33 33 33 33 33 34 34 34 34 34 34 34 34 34
6 7 9 11 12 13 14 17 20 23 25 27 29 30 31 33 34 35 36 36 37 37 37 37 36 36 36 36 36 36 35 35 36 37 38 38 38 37 37 36 36 34 33 33 34 35 35 35 34 34 33 31 30 30 30 31 31 31 31 30 30 29 29 29 29 29 29 29 30 31 32 32 33 33 33 33 33 33 33 33 33 33 33 32 32 32 32
14 15 17 18 19 20 22 23 25 26 27 28 29 30 31 32 32 33 34 34 34 34 35 35 35 35 36 36 36 35 35 34 35 35 35 34 34 33 33 33 33 32 32 32 33 33 33 33 34 34 34 33 31 30 31 31 31 31 30 30 30 29 29 29 29 29 29 30 31 32 33 33 33 33 33 33 33 32 32 32 31 31 31 30 30 30 30
Wind_Direction
253 254 254 256 258 260 261 263 265 267 269 271 272 273 274 275 277 278 280 283 285 285 289 293 294 295 296 299 301 302 302 303 305 306 307 309 310 310 311 312 312 312 313 313 313 314 315 316 316 317 318 318 319 318 318 319 320 318 317 316 314 312 310 309 307 306 306 306 306 305 305 305 305 305 306 307 308 309 310 312 313 314 315 315 315 315 316
253 254 255 256 257 259 261 263 265 267 269 271 272 272 273 274 276 278 280 283 284 285 289 293 293 294 296 298 300 301 302 303 304 305 307 308 309 309 310 310 311 311 311 312 313 313 314 315 316 317 317 318 318 317 317 319 319 318 316 315 313 312 310 308 307 306 306 305 304 304 304 304 304 305 306 307 308 310 312 314 315 316 316 316 316 317 317
253 254 255 256 258 259 261 263 265 267 269 270 271 272 273 275 277 279 281 283 283 286 290 292 293 294 296 297 299 300 301 302 303 304 306 307 308 308 308 309 309 310 310 311 312 312 313 314 315 316 317 317 317 316 316 318 318 317 315 314 313 311 309 308 307 306 304 303 303 303 304 304 305 305 306 307 309 312 314 315 316 316 316 317 317 317 317
254 254 255 257 258 260 262 264 266 268 269 270 271 272 273 274 277 279 281 283 283 286 289 291 292 293 294 295 297 298 299 301 302 302 303 305 305 306 307 307 308 309 310 310 311 312 313 313 314 315 316 316 315 314 315 316 316 316 314 313 312 311 309 308 306 305 303 302 302 303 304 305 305 305 307 309 311 314 315 316 316 316 316 317 317 317 317
254 255 256 257 259 261 263 265 267 267 268 270 272 272 273 274 277 279 281 282 283 285 287 289 289 290 291 293 294 296 297 298 299 300 301 302 303 304 305 306 307 308 309 310 310 311 312 313 313 314 314 314 313 313 314 315 315 314 313 312 311 310 309 307 305 304 303 302 303 304 304 305 305 306 308 311 313 315 315 315 315 315 316 317 317 317 316
253 255 256 258 260 262 264 265 266 267 269 271 272 272 273 275 277 278 279 279 281 283 285 285 286 287 289 290 292 294 295 297 298 299 300 301 302 303 304 305 306 307 308 309 310 310 311 312 312 313 313 312 312 313 313 314 314 313 312 311 310 309 307 305 304 303 303 303 303 304 305 305 305 307 310 312 314 314 314 314 315 315 316 316 316 316 316
254 255 257 259 261 262 263 264 266 268 269 271 271 272 273 275 276 276 277 278 280 281 282 282 283 285 287 289 291 293 295 296 296 298 299 300 301 302 303 304 305 306 306 308 308 309 310 310 311 311 311 311 311 312 312 313 312 312 311 310 309 307 306 304 303 303 303 304 304 304 304 305 306 308 311 312 313 314 314 314 315 316 316 316 316 316 316
254 256 258 259 260 261 262 264 266 268 269 270 271 272 273 274 275 275 276 278 279 280 280 282 283 285 287 289 291 293 294 295 296 297 298 299 300 301 301 302 303 304 305 306 307 308 309 310 310 311 311 311 311 311 312 312 311 310 310 309 307 305 304 304 303 303 304 304 303 304 304 306 308 309 311 312 313 313 314 314 315 315 315 315 315 316 316
253 255 258 259 260 260 262 264 265 267 269 270 271 272 273 274 274 275 276 277 278 279 280 282 283 285 287 289 291 292 293 294 295 297 297 298 299 300 300 301 302 303 304 306 306 307 308 309 310 310 310 310 311 311 311 311 310 309 309 308 306 304 304 303 303 303 303 303 303 304 305 307 308 310 311 313 313 314 314 314 314 314 314 314 315 315 315
253 254 257 259 260 262 263 263 265 267 268 269 270 271 273 274 275 276 276 277 278 279 281 282 284 286 287 289 290 291 292 294 295 296 297 297 298 299 299 300 301 302 303 305 305 306 307 308 309 310 310 310 310 310 309 309 308 308 308 307 305 304 303 303 303 303 302 303 304 305 307 308 309 310 312 313 313 313 313 313 313 314 314 315 315 315 314
254 255 256 258 260 262 263 263 264 265 266 268 270 271 272 273 275 276 277 277 279 280 281 282 284 286 287 288 290 291 292 293 295 295 296 297 297 298 299 299 300 301 302 303 304 305 306 307 308 308 309 309 309 308 308 308 307 307 307 306 304 303 303 303 302 303 303 304 306 307 307 308 310 311 312 312 313 313 313 313 313 314 314 315 314 314 313
254 255 256 258 260 261 262 263 263 264 266 267 269 271 272 273 274 276 277 278 279 280 281 282 284 286 287 288 289 290 292 293 294 294 295 296 296 297 298 298 299 300 301 303 304 305 306 306 307 307 308 308 308 308 307 306 306 307 306 305 304 303 303 303 303 304 305 305 306 307 308 309 310 310 311 312 313 313 312 312 313 313 313 313 313 312 311
254 256 257 258 259 260 261 262 263 264 266 267 269 270 271 273 274 275 276 278 279 280 281 282 284 285 286 287 288 290 291 292 292 293 294 294 295 296 297 298 299 300 301 302 303 304 305 306 306 306 307 307 307 306 306 305 306 306 305 304 303 303 303 303 304 304 305 305 306 307 308 309 309 310 310 311 312 312 312 312 312 313 313 312 311 310 309
254 256 257 257 257 259 261 262 263 265 266 267 269 270 270 272 273 274 275 276 278 280 281 283 284 285 285 286 288 289 290 290 291 292 292 293 294 295 296 297 298 300 301 302 303 303 304 305 305 305 305 306 306 305 304 304 304 304 303 303 303 302 302 303 304 304 305 305 306 306 307 307 308 309 310 310 311 311 311 311 312 312 312 311 310 309 307
254 255 256 256 257 258 260 262 263 265 266 267 268 269 270 271 272 273 274 276 278 279 281 282 284 284 285 286 287 288 289 289 290 291 292 293 294 294 295 296 298 299 300 301 302 303 303 303 304 304 304 304 304 303 303 302 302 301 301 301 301 301 301 302 303 304 304 305 305 305 306 306 308 309 310 310 311 311 311 311 312 311 311 310 309 307 306
254 254 255 256 258 258 260 261 263 264 265 266 267 268 269 271 272 273 275 276 277 279 280 281 282 283 285 286 287 287 288 288 289 290 291 292 293 294 294 295 297 298 299 300 301 301 302 302 303 303 303 303 302 302 301 301 300 300 300 300 300 300 300 301 302 303 304 304 304 305 306 307 309 310 310 311 311 311 312 311 311 311 310 310 308 306 305
253 254 255 257 258 259 260 261 262 263 264 265 266 268 269 270 272 273 274 276 277 278 279 281 282 283 284 285 286 286 287 288 289 290 291 291 292 292 293 295 296 297 298 299 300 300 301 301 302 301 301 301 301 301 300 300 300 299 299 300 300 300 300 301 302 303 303 303 304 305 306 308 309 310 311 311 311 311 311 311 311 310 309 308 306 304 304
253 254 256 257 258 259 259 260 261 262 264 265 267 268 269 270 271 273 274 275 276 278 279 280 281 282 283 283 284 285 286 287 288 289 290 291 291 292 293 294 296 297 298 298 299 300 300 300 300 300 300 300 300 300 300 300 300 299 299 300 300 300 301 301 302 303 303 304 304 306 307 309 310 310 311 311 311 311 311 310 310 309 308 306 304 302 302
252 253 255 256 257 258 259 260 261 262 264 265 266 268 269 270 271 272 274 275 276 277 278 279 280 281 282 282 283 284 285 286 287 288 289 290 291 292 293 295 296 297 297 298 298 299 299 299 299 298 299 299 299 299 299 299 298 298 299 299 300 300 301 302 302 303 303 304 305 306 308 308 309 310 311 311 311 311 311 310 310 309 307 304 302 300 298
252 253 254 255 257 259 260 261 262 263 264 265 266 267 269 270 271 272 273 274 275 276 278 279 279 280 281 282 282 283 284 285 286 287 288 289 290 291 293 295 295 296 296 297 297 297 297 297 297 297 298 298 297 298 298 298 298 298 298 299 299 300 301 301 301 302 302 304 305 306 307 308 309 310 311 311 311 311 310 310 309 308 305 302 300 297 295
252 253 255 256 257 259 260 261 262 263 264 265 266 267 268 269 270 272 273 273 274 275 276 277 278 279 280 280 281 282 283 284 285 286 287 288 290 291 292 293 294 294 295 295 296 296 296 296 296 296 296 296 296 296 296 297 297 298 298 298 299 299 300 300 301 302 303 305 306 306 307 308 309 310 310 311 311 310 309 308 307 305 302 300 296 294 291
253 254 255 256 257 259 260 261 262 263 264 265 266 267 268 269 270 271 272 273 274 275 275 276 277 278 278 279 280 281 282 283 284 286 287 288 289 290 291 292 292 293 294 295 295 295 295 295 295 295 295 295 295 295 295 296 297 297 297 298 298 299 300 301 301 303 304 305 305 306 307 308 309 310 310 311 311 310 309 308 307 304 300 296 292 290 288
253 254 255 256 257 259 260 261 262 263 264 265 266 267 268 269 270 271 272 273 273 274 275 276 276 277 278 279 280 281 282 283 284 285 287 288 288 289 290 291 292 293 293 293 294 294 293 293 293 293 294 294 294 294 295 295 296 296 297 298 298 299 300 301 302 302 303 304 305 306 307 308 309 310 311 311 311 309 308 308 307 304 299 293 288 286 285
253 254 255 256 258 259 261 262 263 264 265 265 266 267 268 269 270 271 271 272 273 274 275 276 277 277 278 279 280 281 282 283 284 285 286 287 288 289 290 291 292 292 292 292 292 292 292 292 292 293 293 293 293 294 294 295 295 296 297 297 298 299 300 301 301 302 303 303 304 305 307 308 308 309 310 311 310 308 307 307 306 304 298 290 283 281 280
253 255 256 257 258 259 260 262 263 264 265 265 266 267 267 268 269 270 271 272 274 274 275 276 277 277 278 280 281 282 283 283 285 286 286 287 288 289 290 291 291 291 291 291 291 291 291 292 292 292 293 293 293 293 294 295 295 296 296 297 298 298 299 300 301 301 302 303 304 305 306 307 308 309 310 310 309 307 305 303 301 298 294 287 280 277 275
255 256 257 257 258 259 260 261 263 264 265 265 266 267 268 269 270 271 272 273 274 275 275 276 276 277 278 279 280 281 282 283 284 285 286 287 288 288 289 289 289 290 290 290 290 290 291 291 291 291 292 292 292 293 293 294 295 295 296 297 297 298 299 299 300 301 302 303 304 305 305 307 308 309 309 309 308 305 301 297 292 288 285 282 276 272 271
255 256 257 258 259 260 261 262 263 264 265 266 267 268 269 270 271 271 272 273 274 274 275 275 276 277 277 278 279 280 282 283 283 284 285 286 286 287 287 287 288 288 289 289 289 290 290 290 290 291 291 292 292 293 293 293 294 295 295 296 297 297 298 299 299 300 301 302 303 304 305 307 308 309 308 307 305 302 297 292 285 278 274 272 268 264 264
256 256 257 258 259 260 261 262 263 264 265 266 267 268 269 270 271 271 272 272 273 273 274 275 275 275 276 277 278 279 280 281 282 283 284 284 285 285 285 286 286 287 287 288 288 288 289 289 289 290 291 291 292 292 292 293 293 294 295 295 296 297 297 298 299 300 300 301 302 304 305 307 308 308 307 306 304 301 297 291 281 270 264 260 258 255 254
256 257 257 258 259 260 261 262 263 264 265 266 267 267 268 269 270 271 271 272 273 273 274 274 275 275 276 276 277 279 280 281 281 282 282 283 283 284 284 285 285 286 286 286 286 287 288 288 289 290 290 291 291 291 292 293 293 294 294 295 295 296 296 297 298 299 300 301 302 304 305 307 308 307 305 304 303 300 296 288 278 267 258 252 250 250 249
256 257 257 258 259 260 261 262 263 264 265 265 266 267 267 268 269 270 270 271 272 273 273 274 274 275 275 276 277 278 279 279 280 280 281 281 282 282 283 284 284 284 284 285 286 286 287 288 289 289 290 291 291 291 292 292 293 293 293 294 294 295 296 297 297 298 299 301 302 304 306 307 307 306 304 303 301 297 291 283 272 262 255 249 245 245 245
256 257 258 258 259 260 261 262 263 264 265 266 267 267 268 268 269 269 270 271 271 272 273 273 273 274 274 275 276 277 278 278 278 279 280 280 281 282 282 282 283 283 284 284 285 286 287 288 289 289 290 291 291 291 292 292 292 293 293 293 294 294 295 296 297 298 299 301 302 304 305 306 305 304 303 302 299 294 288 279 267 257 252 247 243 243 243
257 258 259 259 260 260 261 262 262 263 265 266 266 267 267 268 268 269 269 270 270 271 271 272 273 273 274 275 276 277 278 278 278 278 279 280 281 281 282 282 283 283 284 285 286 287 287 288 289 289 290 290 291 291 291 292 292 292 292 293 293 294 295 296 296 297 299 300 302 303 304 304 303 302 302 300 297 292 285 275 265 256 250 245 242 241 241
258 259 259 260 260 261 261 262 262 263 263 264 265 266 266 267 267 268 268 269 269 269 270 271 272 274 275 276 276 276 276 277 278 278 279 280 281 282 282 283 284 284 285 286 286 287 288 288 289 289 289 290 291 291 291 291 291 291 292 292 292 293 294 294 295 297 298 299 301 302 303 303 302 301 300 299 295 289 280 272 263 256 251 245 241 240 240
258 258 259 260 261 261 262 262 263 263 263 264 265 266 266 266 267 267 267 268 268 269 269 271 272 273 274 275 276 276 276 276 277 279 280 281 282 282 283 284 284 285 286 287 287 287 288 288 289 289 290 291 291 291 291 291 291 291 291 291 292 292 293 294 295 296 297 298 300 301 301 301 301 301 300 297 292 285 278 270 263 257 253 249 246 244 243
258 259 259 260 261 262 263 263 264 264 264 265 265 266 267 267 267 267 267 268 268 269 269 271 272 273 274 275 276 276 276 277 278 279 280 281 282 283 284 284 285 286 287 287 287 288 289 289 290 291 291 291 291 291 291 290 290 290 290 291 291 292 292 293 294 295 296 298 299 300 299 299 299 300 299 296 290 284 277 269 263 258 256 254 253 251 248
259 260 260 261 262 263 264 264 265 265 266 266 266 266 267 267 268 268 269 269 269 269 270 271 273 275 276 277 278 277 278 279 280 281 281 282 282 283 284 284 286 286 287 288 288 289 290 290 291 292 292 291 290 290 290 290 290 290 290 290 291 291 291 292 293 294 295 296 297 298 298 298 299 299 297 293 289 286 280 271 263 258 255 254 254 253 250
259 260 261 262 263 264 264 265 266 266 267 268 268 268 268 268 269 269 270 270 271 272 272 273 273 274 276 277 278 279 280 281 282 282 282 282 283 284 285 285 286 287 287 288 288 289 290 292 292 292 291 290 290 290 290 290 290 290 290 290 290 290 290 291 291 293 294 295 295 296 296 297 298 298 295 290 286 284 281 274 266 260 256 254 252 251 249
261 262 263 263 264 265 265 266 266 267 267 268 269 269 269 270 270 270 271 271 272 273 274 274 275 275 276 277 277 279 280 281 282 283 283 284 284 285 285 285 286 286 287 287 288 290 292 293 292 291 291 290 291 291 290 290 290 289 289 289 288 289 289 290 291 291 292 293 293 294 295 295 296 296 294 289 285 282 278 272 268 264 261 258 255 253 252
263 264 264 264 265 265 266 266 267 267 267 268 268 269 270 270 271 271 272 273 274 275 275 276 277 277 277 277 278 279 280 280 282 283 283 284 284 284 284 284 285 286 287 288 290 292 293 292 290 289 290 290 291 290 290 290 289 289 288 288 288 288 288 289 290 290 291 291 292 292 293 294 294 294 292 290 287 282 277 272 268 266 264 262 260 258 256
264 265 265 266 266 266 267 267 267 267 267 268 268 269 270 270 271 272 273 274 275 276 276 277 277 277 277 278 279 280 280 281 281 282 282 282 282 283 283 284 285 286 287 289 291 291 290 288 288 289 290 290 291 290 290 289 288 288 287 287 287 287 288 288 289 290 290 291 291 292 293 293 293 292 291 290 287 283 278 274 270 267 265 264 263 262 261
266 266 266 267 266 266 267 267 267 267 268 268 268 269 270 271 272 272 273 274 275 275 276 276 277 277 277 278 278 279 279 280 280 280 280 280 281 282 283 284 285 287 289 290 290 289 288 289 290 291 291 291 290 289 288 287 287 286 286 286 287 288 288 289 289 290 290 290 291 292 292 293 292 291 290 288 286 283 280 278 274 271 268 266 264 263 262
267 267 266 266 266 266 266 266 266 266 267 267 268 269 269 270 271 272 272 273 273 273 274 275 276 276 276 276 277 277 277 277 277 278 278 279 280 281 283 285 286 287 288 288 288 289 290 291 292 291 291 289 288 287 286 286 286 286 287 288 288 289 290 290 289 289 290 290 291 292 292 291 291 290 287 285 284 283 282 280 278 275 272 270 268 266 264
265 264 264 264 264 263 263 264 264 265 265 266 267 268 269 269 270 270 271 271 272 272 273 273 274 275 275 276 276 276 276 276 276 277 277 278 280 281 283 284 284 285 285 287 288 290 291 291 290 289 288 286 286 286 287 287 288 288 289 290 290 290 290 290 289 289 290 290 290 290 290 290 289 288 286 284 283 283 282 281 280 278 275 273 272 270 268
261 260 260 260 260 261 261 262 263 264 265 266 266 267 267 268 269 269 270 271 271 272 272 272 272 272 273 274 275 275 275 276 277 278 278 279 279 279 279 280 281 283 285 287 288 288 288 288 287 286 286 286 287 287 288 288 289 290 290 290 290 290 289 289 289 289 289 289 289 289 289 288 288 287 286 285 284 283 283 282 281 280 278 276 275 273 272
257 257 257 258 259 260 261 262 263 264 265 266 266 266 267 268 269 270 271 272 272 273 273 272 271 272 273 273 274 275 275 276 277 277 276 275 275 276 277 279 281 283 285 286 286 286 286 287 287 287 287 288 288 288 288 288 289 289 288 288 288 287 287 287 288 288 288 288 289 289 289 289 289 289 288 287 286 285 284 283 282 281 280 279 278 276 275
256 257 258 258 259 259 260 262 262 263 264 264 265 266 267 269 271 272 273 273 273 273 272 271 271 271 272 272 272 273 274 274 273 273 273 273 275 276 278 280 282 282 283 284 286 287 289 289 289 289 289 289 289 289 288 288 287 287 287 286 286 285 285 286 286 286 287 287 288 289 289 290 290 290 289 288 287 286 285 284 283 282 281 280 279 278 277
255 256 256 257 257 258 259 261 262 264 265 266 267 268 269 270 271 272 272 271 271 270 270 270 270 270 270 270 270 270 270 271 271 272 274 275 276 278 279 279 280 282 284 287 289 291 291 290 290 289 289 289 289 288 288 287 287 287 286 285 284 284 284 284 285 286 287 288 289 290 290 291 291 290 289 288 288 287 286 286 285 284 283 282 280 279 278
254 256 257 259 261 262 264 265 267 270 272 271 270 269 268 268 268 268 268 269 270 271 271 271 271 271 271 271 271 271 272 273 274 275 276 277 277 278 279 281 283 285 288 290 292 291 290 289 289 288 289 289 288 288 288 288 287 286 285 284 284 284 285 286 286 287 289 290 291 292 292 292 291 291 291 290 290 289 288 287 286 284 283 281 280 279 278
253 255 257 259 263 265 265 265 265 265 264 263 264 265 266 266 267 269 270 271 272 273 274 274 274 274 274 274 275 275 275 276 276 278 279 280 281 282 284 285 287 289 290 291 291 290 288 288 288 289 289 289 289 288 288 288 287 286 285 285 285 285 286 286 287 288 290 291 292 292 292 293 293 293 293 292 291 291 289 288 286 285 283 281 280 279 278
261 260 259 256 255 256 257 255 250 244 244 250 257 262 266 268 270 272 274 274 275 276 276 277 278 278 278 278 278 278 278 279 281 282 284 284 285 286 287 289 289 290 290 290 288 287 287 288 289 290 290 289 289 288 288 287 286 285 286 286 286 286 286 287 287 288 290 291 292 293 294 295 295 295 296 296 296 295 294 293 291 290 288 286 284 282 280
223 229 229 229 230 231 234 238 242 247 251 257 262 266 269 272 273 275 276 277 277 278 279 280 280 281 281 281 281 281 282 283 285 285 285 286 287 288 288 289 289 289 289 288 287 287 288 290 290 290 290 289 287 286 285 284 283 284 284 284 285 285 286 287 288 290 291 293 295 296 296 297 298 299 300 301 300 300 298 297 295 294 293 291 289 287 285
215 221 227 232 236 239 243 248 254 260 265 269 271 273 275 276 277 277 278 279 280 280 281 282 283 283 282 282 283 284 285 285 286 286 286 287 288 289 289 290 290 290 290 289 288 289 290 290 290 289 289 287 286 285 284 283 282 282 283 284 284 286 287 288 290 292 293 295 296 297 298 299 300 301 302 302 302 301 300 299 297 297 295 294 292 289 287
Height
10896 10898 10900 10901 10901 10903 10905 10906 10908 10908 10909 10909 10909 10909 10907 10905 10905 10903 10900 10900 10897 10892 10894 10899 10898 10897 10896 10895 10894 10893 10891 10890 10889 10888 10887 10886 10885 10882 10880 10877 10875 10873 10871 10868 10865 10862 10858 10855 10852 10849 10845 10842 10838 10834 10830 10827 10823 10819 10816 10813 10809 10805 10801 10797 10793 10790 10787 10784 10781 10779 10776 10772 10768 10765 10762 10759 10755 10749 10743 10738 10733 10728 10723 10718 10713 10709 10705
10889 10890 10892 10894 10895 10897 10898 10900 10902 10902 10903 10903 10902 10902 10901 10899 10899 10897 10895 10895 10892 10887 10889 10891 10890 10890 10890 10888 10886 10885 10884 10882 10881 10879 10877 10877 10876 10874 10873 10871 10869 10867 10864 10862 10858 10855 10851 10848 10844 10841 10837 10834 10830 10826 10823 10820 10817 10813 10809 10806 10803 10799 10795 10791 10788 10784 10781 10778 10775 10773 10770 10765 10761 10757 10755 10751 10746 10741 10734 10728 10723 10718 10713 10708 10703 10698 10693
10882 10884 10885 10886 10888 10889 10891 10894 10896 10897 10896 10895 10895 10896 10895 10893 10892 10891 10890 10890 10887 10883 10883 10884 10883 10883 10882 10880 10878 10878 10876 10875 10873 10871 10869 10868 10867 10866 10865 10863 10862 10860 10857 10855 10851 10848 10844 10840 10836 10833 10829 10826 10823 10819 10816 10813 10810 10806 10802 10799 10796 10792 10789 10785 10782 10779 10775 10771 10769 10766 10763 10759 10753 10750 10747 10743 10737 10731 10725 10719 10713 10708 10703 10699 10693 10688 10683
10875 10876 10877 10879 10880 10882 10885 10888 10890 10889 10888 10887 10888 10889 10889 10887 10886 10886 10885 10884 10881 10880 10880 10878 10876 10877 10875 10873 10872 10871 10870 10869 10867 10865 10863 10861 10859 10858 10856 10855 10854 10852 10850 10847 10844 10841 10837 10833 10829 10826 10822 10819 10816 10812 10809 10807 10803 10799 10795 10791 10788 10785 10782 10778 10775 10772 10768 10765 10762 10759 10756 10752 10746 10741 10738 10734 10728 10722 10716 10710 10705 10699 10695 10690 10685 10679 10674
10867 10867 10869 10871 10873 10876 10880 10882 10881 10879 10879 10880 10882 10882 10881 10881 10881 10880 10879 10877 10876 10876 10876 10873 10871 10870 10869 10869 10867 10866 10865 10864 10862 10860 10858 10855 10853 10850 10848 10846 10845 10844 10842 10839 10837 10833 10830 10826 10822 10819 10816 10812 10809 10805 10803 10800 10797 10793 10788 10784 10781 10778 10775 10771 10768 10765 10762 10759 10756 10752 10749 10745 10740 10734 10730 10725 10720 10714 10708 10702 10697 10691 10687 10682 10677 10672 10666
10859 10859 10861 10864 10867 10870 10874 10874 10871 10870 10871 10873 10874 10875 10874 10874 10875 10875 10872 10871 10871 10872 10871 10869 10866 10864 10863 10863 10863 10862 10861 10859 10857 10855 10852 10850 10847 10844 10841 10839 10837 10836 10834 10832 10829 10826 10822 10819 10815 10811 10808 10805 10801 10799 10796 10794 10790 10786 10781 10777 10773 10770 10767 10764 10761 10757 10754 10751 10748 10745 10742 10738 10733 10728 10723 10718 10712 10707 10701 10694 10689 10684 10678 10674 10669 10663 10658
10852 10852 10854 10858 10862 10864 10864 10863 10862 10863 10864 10864 10866 10868 10867 10867 10868 10867 10864 10865 10866 10866 10864 10862 10860 10859 10858 10857 10856 10857 10856 10853 10851 10849 10846 10844 10841 10838 10835 10832 10829 10827 10825 10823 10821 10818 10815 10812 10808 10804 10801 10797 10794 10792 10789 10786 10783 10779 10774 10770 10766 10762 10759 10756 10753 10750 10748 10744 10741 10737 10734 10730 10725 10720 10717 10712 10706 10700 10693 10687 10682 10676 10671 10665 10660 10654 10648
10846 10846 10848 10852 10853 10854 10855 10854 10854 10855 10855 10855 10859 10861 10859 10858 10860 10858 10856 10858 10859 10857 10856 10856 10854 10853 10852 10851 10850 10850 10848 10846 10844 10842 10840 10838 10835 10831 10828 10825 10822 10819 10817 10815 10813 10810 10806 10803 10800 10797 10793 10789 10786 10783 10781 10778 10774 10770 10767 10763 10758 10753 10751 10748 10745 10743 10741 10737 10734 10730 10725 10721 10716 10712 10709 10705 10699 10692 10685 10679 10675 10670 10664 10658 10652 10645 10639
10840 10841 10843 10842 10841 10845 10847 10847 10846 10847 10847 10848 10852 10853 10850 10849 10851 10850 10848 10849 10849 10848 10849 10848 10847 10847 10845 10844 10845 10844 10840 10838 10838 10836 10834 10831 10828 10825 10821 10818 10815 10811 10809 10806 10804 10801 10798 10794 10791 10788 10785 10781 10777 10774 10772 10769 10765 10762 10759 10755 10750 10745 10742 10740 10738 10735 10733 10730 10726 10722 10717 10712 10707 10703 10700 10696 10691 10684 10677 10671 10668 10663 10656 10651 10645 10638 10631
10832 10836 10835 10831 10833 10837 10838 10838 10838 10840 10840 10840 10843 10845 10841 10839 10841 10840 10838 10839 10840 10840 10841 10839 10839 10839 10837 10836 10837 10836 10832 10831 10831 10829 10827 10824 10821 10817 10814 10811 10808 10804 10801 10798 10796 10793 10790 10786 10783 10779 10776 10772 10769 10765 10763 10760 10757 10753 10751 10747 10741 10736 10734 10732 10730 10727 10724 10721 10717 10713 10708 10703 10698 10694 10691 10687 10681 10676 10669 10663 10659 10654 10647 10642 10636 10629 10622
10824 10828 10827 10824 10827 10828 10827 10828 10831 10833 10833 10833 10835 10837 10833 10830 10831 10830 10827 10828 10831 10831 10832 10831 10830 10830 10828 10827 10828 10827 10824 10822 10822 10820 10818 10816 10813 10810 10807 10804 10801 10797 10794 10791 10788 10785 10782 10778 10775 10771 10768 10765 10761 10757 10753 10750 10747 10745 10742 10738 10732 10727 10725 10724 10722 10719 10715 10712 10708 10704 10700 10695 10690 10685 10681 10677 10673 10667 10660 10654 10649 10644 10639 10634 10629 10622 10615
10815 10817 10817 10818 10819 10818 10817 10819 10822 10825 10826 10826 10828 10830 10825 10820 10823 10822 10817 10817 10821 10822 10822 10822 10822 10822 10820 10817 10817 10818 10816 10814 10812 10811 10809 10807 10804 10801 10799 10796 10793 10790 10787 10784 10780 10777 10773 10770 10766 10763 10760 10757 10753 10749 10744 10740 10737 10735 10733 10728 10723 10719 10716 10714 10713 10710 10706 10703 10700 10696 10692 10688 10683 10678 10672 10668 10664 10658 10651 10645 10640 10636 10631 10627 10622 10617 10611
10805 10806 10809 10811 10809 10807 10809 10810 10812 10816 10819 10818 10819 10822 10817 10812 10814 10814 10809 10807 10810 10812 10813 10813 10813 10812 10811 10808 10807 10808 10807 10804 10802 10801 10799 10797 10795 10792 10789 10786 10783 10781 10778 10775 10771 10768 10764 10760 10757 10753 10751 10748 10745 10741 10736 10731 10728 10726 10723 10719 10715 10710 10707 10705 10703 10701 10698 10695 10692 10689 10684 10679 10675 10670 10665 10661 10657 10651 10643 10636 10631 10627 10623 10618 10614 10609 10605
10796 10796 10798 10799 10798 10800 10801 10801 10803 10809 10810 10809 10810 10811 10808 10805 10806 10805 10802 10799 10800 10801 10802 10803 10803 10802 10801 10799 10798 10797 10797 10795 10792 10791 10789 10787 10785 10782 10779 10776 10773 10771 10769 10766 10762 10759 10755 10751 10747 10744 10741 10739 10736 10733 10728 10723 10720 10717 10713 10711 10708 10703 10699 10697 10695 10692 10690 10687 10684 10681 10677 10672 10667 10663 10657 10652 10648 10643 10636 10628 10623 10618 10613 10609 10604 10600 10596
10786 10786 10786 10786 10789 10793 10794 10792 10795 10801 10801 10800 10800 10800 10799 10798 10797 10795 10794 10793 10792 10792 10792 10793 10793 10791 10790 10789 10788 10786 10785 10783 10782 10780 10779 10777 10775 10773 10770 10766 10764 10761 10759 10756 10753 10750 10746 10742 10738 10735 10732 10729 10726 10723 10720 10716 10713 10709 10706 10703 10700 10696 10692 10689 10687 10684 10681 10678 10674 10671 10668 10665 10660 10655 10649 10642 10637 10632 10626 10619 10614 10608 10604 10600 10595 10590 10586
10775 10775 10775 10775 10779 10786 10787 10785 10787 10790 10791 10791 10791 10790 10790 10790 10788 10787 10786 10785 10784 10784 10783 10783 10783 10781 10779 10777 10776 10774 10772 10772 10771 10770 10768 10767 10765 10763 10760 10757 10755 10753 10750 10747 10744 10741 10737 10733 10729 10725 10722 10720 10717 10714 10711 10707 10704 10701 10698 10695 10692 10688 10684 10682 10679 10676 10672 10668 10665 10661 10658 10655 10651 10645 10638 10631 10625 10621 10615 10609 10604 10598 10594 10590 10585 10581 10578
10764 10764 10764 10767 10771 10776 10778 10778 10778 10780 10781 10782 10783 10782 10781 10781 10779 10779 10779 10777 10776 10775 10774 10774 10773 10771 10769 10766 10764 10762 10760 10759 10759 10758 10758 10756 10754 10752 10750 10748 10747 10744 10741 10738 10735 10732 10728 10724 10719 10715 10712 10709 10707 10705 10702 10697 10694 10690 10687 10685 10682 10679 10676 10673 10671 10667 10663 10659 10655 10651 10648 10645 10641 10635 10628 10621 10614 10609 10604 10598 10594 10589 10585 10581 10576 10572 10571
10755 10753 10755 10760 10764 10765 10766 10767 10770 10771 10772 10773 10774 10774 10773 10771 10770 10770 10770 10769 10768 10766 10766 10765 10764 10762 10760 10757 10754 10753 10751 10748 10747 10746 10745 10744 10742 10741 10740 10739 10737 10734 10731 10728 10725 10722 10718 10714 10710 10705 10702 10699 10697 10695 10693 10688 10684 10680 10677 10674 10671 10669 10666 10664 10661 10657 10652 10648 10645 10642 10638 10634 10630 10626 10619 10612 10604 10598 10593 10589 10584 10580 10576 10572 10568 10565 10564
10744 10743 10747 10752 10753 10752 10754 10757 10761 10764 10764 10764 10764 10764 10763 10762 10761 10761 10761 10760 10759 10758 10756 10755 10753 10752 10751 10749 10746 10744 10743 10741 10739 10737 10735 10733 10730 10729 10728 10728 10726 10723 10720 10717 10715 10711 10708 10704 10699 10695 10692 10689 10686 10685 10684 10681 10675 10671 10668 10665 10662 10659 10657 10654 10651 10647 10642 10638 10635 10632 10629 10624 10620 10616 10610 10602 10594 10587 10581 10578 10575 10570 10567 10563 10560 10558 10557
10733 10732 10740 10746 10742 10741 10745 10749 10752 10755 10755 10755 10754 10754 10753 10753 10753 10753 10753 10752 10751 10749 10747 10745 10743 10740 10739 10738 10736 10734 10733 10732 10730 10729 10727 10724 10721 10719 10717 10717 10715 10712 10709 10706 10704 10701 10698 10694 10689 10686 10682 10679 10677 10675 10674 10671 10666 10662 10659 10656 10653 10650 10648 10645 10641 10637 10633 10630 10626 10622 10619 10613 10609 10606 10600 10593 10586 10578 10572 10568 10566 10562 10558 10556 10553 10551 10551
10722 10723 10734 10739 10734 10733 10737 10739 10742 10744 10745 10745 10745 10744 10744 10744 10744 10744 10744 10744 10743 10741 10738 10735 10732 10730 10728 10727 10725 10724 10724 10722 10721 10720 10718 10716 10713 10711 10709 10707 10705 10701 10698 10695 10693 10690 10687 10683 10679 10676 10672 10669 10667 10665 10663 10661 10657 10654 10650 10647 10643 10641 10638 10634 10630 10627 10623 10621 10616 10612 10608 10604 10599 10595 10589 10583 10578 10571 10564 10560 10558 10554 10551 10548 10545 10544 10544
10712 10717 10726 10729 10725 10724 10727 10729 10731 10733 10734 10734 10734 10735 10735 10734 10734 10734 10734 10733 10733 10731 10727 10725 10723 10719 10717 10715 10714 10714 10715 10713 10711 10709 10708 10707 10705 10702 10700 10698 10695 10691 10687 10684 10682 10679 10676 10673 10670 10666 10663 10660 10658 10655 10653 10651 10648 10645 10642 10638 10633 10631 10628 10623 10620 10616 10613 10610 10606 10601 10597 10593 10589 10585 10579 10572 10567 10561 10555 10551 10549 10545 10543 10541 10538 10537 10538
10703 10708 10716 10718 10716 10715 10716 10717 10719 10722 10724 10724 10723 10724 10725 10724 10723 10723 10723 10722 10722 10720 10716 10715 10713 10709 10706 10704 10704 10704 10705 10703 10701 10700 10698 10696 10694 10691 10690 10688 10685 10682 10678 10674 10671 10668 10666 10663 10660 10657 10654 10651 10648 10646 10643 10641 10639 10636 10633 10629 10624 10621 10618 10614 10610 10606 10603 10600 10597 10592 10587 10582 10577 10574 10570 10563 10557 10552 10546 10542 10540 10538 10535 10534 10532 10531 10532
10695 10699 10705 10709 10708 10707 10705 10704 10707 10711 10714 10714 10713 10712 10713 10713 10710 10710 10711 10711 10710 10709 10706 10704 10702 10698 10695 10693 10692 10693 10693 10692 10691 10690 10688 10686 10683 10680 10678 10675 10673 10670 10667 10664 10661 10658 10655 10653 10650 10648 10645 10642 10639 10636 10633 10631 10629 10626 10623 10619 10615 10611 10608 10605 10600 10596 10592 10590 10587 10583 10578 10573 10567 10564 10561 10556 10550 10545 10540 10535 10532 10531 10529 10528 10527 10526 10527
10688 10692 10696 10698 10697 10697 10695 10695 10697 10700 10701 10702 10701 10699 10701 10701 10699 10699 10700 10700 10699 10698 10696 10693 10690 10686 10684 10682 10681 10680 10681 10680 10680 10679 10677 10675 10672 10670 10667 10664 10661 10658 10655 10652 10649 10647 10644 10643 10640 10638 10636 10633 10630 10627 10623 10620 10618 10615 10612 10609 10605 10601 10598 10595 10591 10586 10582 10579 10576 10572 10568 10564 10558 10553 10551 10548 10543 10538 10534 10530 10527 10525 10524 10523 10522 10521 10522
10681 10682 10683 10684 10684 10685 10685 10686 10688 10687 10687 10687 10687 10687 10688 10689 10689 10687 10688 10689 10688 10686 10684 10682 10679 10676 10674 10672 10670 10669 10669 10669 10668 10666 10664 10663 10661 10658 10656 10652 10650 10647 10644 10641 10638 10636 10634 10632 10631 10629 10626 10624 10621 10618 10614 10610 10607 10605 10602 10599 10595 10591 10588 10584 10580 10576 10572 10569 10566 10563 10559 10555 10549 10544 10541 10540 10536 10531 10527 10524 10522 10520 10518 10518 10518 10517 10517
10668 10669 10670 10671 10672 10673 10675 10676 10676 10675 10673 10674 10676 10676 10676 10677 10676 10675 10676 10678 10677 10673 10670 10669 10668 10665 10664 10662 10660 10659 10658 10657 10657 10655 10653 10652 10650 10647 10644 10642 10639 10637 10634 10630 10628 10626 10624 10622 10621 10619 10617 10614 10611 10608 10604 10600 10597 10595 10592 10588 10584 10581 10577 10573 10570 10566 10563 10560 10557 10553 10549 10547 10542 10536 10532 10531 10530 10526 10522 10519 10518 10516 10514 10513 10514 10513 10513
10654 10656 10660 10661 10662 10662 10663 10663 10664 10663 10662 10663 10665 10666 10665 10665 10664 10663 10663 10665 10664 10661 10658 10657 10655 10654 10653 10652 10650 10650 10648 10647 10646 10644 10642 10641 10639 10636 10634 10632 10629 10626 10623 10620 10618 10616 10614 10612 10611 10609 10607 10605 10602 10598 10594 10590 10588 10584 10581 10578 10574 10570 10566 10562 10559 10556 10553 10550 10547 10543 10540 10537 10534 10529 10524 10521 10520 10518 10515 10513 10512 10511 10510 10509 10509 10509 10508
10642 10645 10648 10651 10652 10652 10651 10650 10651 10652 10652 10652 10653 10654 10654 10654 10653 10651 10649 10650 10651 10648 10645 10642 10641 10641 10641 10640 10640 10640 10639 10637 10635 10633 10631 10629 10627 10625 10623 10621 10619 10616 10613 10610 10607 10605 10603 10602 10601 10599 10597 10594 10591 10587 10583 10580 10577 10573 10570 10566 10563 10559 10555 10552 10548 10545 10542 10540 10537 10535 10531 10528 10525 10521 10517 10513 10511 10509 10507 10505 10505 10504 10504 10504 10504 10504 10503
10630 10633 10636 10638 10640 10641 10641 10640 10639 10639 10640 10641 10641 10642 10642 10643 10642 10639 10638 10638 10638 10636 10631 10628 10627 10628 10629 10629 10630 10631 10630 10627 10624 10622 10620 10618 10616 10614 10612 10610 10607 10605 10602 10599 10597 10595 10594 10592 10590 10588 10586 10583 10579 10576 10572 10569 10565 10561 10558 10554 10551 10547 10544 10541 10537 10534 10532 10529 10527 10526 10523 10519 10515 10512 10509 10506 10503 10501 10500 10499 10498 10497 10498 10498 10499 10499 10498
10619 10621 10624 10626 10628 10630 10631 10631 10629 10627 10626 10627 10629 10629 10630 10630 10630 10628 10625 10626 10628 10625 10619 10614 10614 10615 10616 10618 10620 10621 10619 10616 10613 10611 10609 10607 10604 10603 10601 10598 10595 10593 10591 10589 10587 10585 10583 10581 10579 10577 10574 10571 10567 10564 10561 10557 10553 10549 10545 10542 10539 10536 10533 10530 10527 10523 10521 10519 10517 10516 10514 10510 10506 10504 10501 10498 10496 10494 10493 10492 10491 10491 10491 10491 10492 10492 10492
10608 10609 10611 10614 10616 10618 10620 10621 10620 10618 10616 10614 10615 10616 10617 10617 10618 10616 10613 10613 10616 10615 10609 10603 10601 10602 10603 10606 10610 10610 10607 10604 10602 10600 10598 10595 10593 10591 10589 10586 10583 10581 10580 10578 10577 10575 10573 10570 10568 10565 10561 10558 10555 10552 10548 10544 10540 10536 10533 10530 10527 10524 10522 10519 10516 10513 10511 10509 10507 10506 10504 10501 10498 10495 10494 10491 10488 10486 10486 10485 10485 10484 10484 10485 10485 10486 10485
10598 10598 10599 10601 10604 10606 10607 10608 10608 10608 10607 10604 10604 10604 10604 10605 10605 10604 10603 10602 10603 10602 10599 10593 10590 10589 10589 10593 10598 10599 10595 10591 10589 10588 10586 10584 10581 10578 10576 10573 10571 10569 10567 10566 10565 10563 10560 10558 10555 10552 10548 10545 10542 10538 10535 10531 10527 10524 10521 10518 10515 10513 10511 10509 10506 10504 10501 10500 10498 10496 10494 10492 10490 10487 10485 10484 10482 10480 10478 10478 10478 10477 10477 10477 10478 10478 10478
10587 10587 10587 10588 10591 10593 10594 10595 10595 10596 10596 10595 10593 10592 10592 10593 10592 10592 10592 10591 10590 10589 10587 10584 10580 10578 10577 10579 10583 10585 10583 10580 10578 10577 10575 10572 10569 10566 10563 10560 10558 10556 10555 10554 10551 10549 10547 10544 10541 10538 10535 10532 10529 10525 10521 10517 10514 10511 10509 10507 10505 10502 10500 10498 10496 10494 10491 10490 10488 10486 10484 10483 10481 10478 10476 10475 10475 10473 10471 10471 10471 10470 10470 10470 10470 10470 10471
10575 10576 10576 10577 10579 10580 10581 10582 10582 10583 10584 10584 10583 10580 10579 10579 10578 10578 10578 10578 10577 10577 10576 10573 10569 10565 10565 10567 10569 10570 10569 10567 10567 10566 10564 10561 10558 10554 10550 10547 10545 10543 10542 10540 10537 10535 10533 10531 10528 10525 10522 10519 10515 10511 10507 10504 10502 10499 10497 10496 10494 10492 10490 10488 10486 10484 10482 10480 10478 10476 10474 10473 10472 10471 10468 10466 10466 10466 10465 10464 10464 10464 10463 10463 10463 10464 10465
10563 10564 10566 10567 10568 10568 10569 10570 10570 10570 10570 10571 10570 10569 10567 10565 10564 10564 10564 10564 10563 10564 10565 10565 10560 10556 10554 10555 10555 10554 10553 10553 10553 10553 10551 10548 10545 10541 10537 10535 10533 10531 10528 10526 10524 10522 10520 10518 10515 10512 10508 10505 10502 10498 10495 10492 10490 10488 10486 10485 10483 10481 10479 10478 10476 10475 10473 10472 10469 10467 10465 10463 10463 10462 10462 10460 10458 10457 10457 10457 10457 10456 10456 10456 10456 10456 10457
10552 10553 10555 10557 10557 10557 10557 10558 10558 10558 10557 10556 10555 10555 10554 10552 10551 10551 10550 10549 10549 10549 10552 10554 10552 10548 10546 10543 10541 10539 10539 10539 10539 10538 10537 10534 10531 10528 10525 10523 10521 10518 10515 10514 10512 10510 10508 10506 10503 10499 10495 10491 10489 10486 10484 10481 10479 10477 10475 10474 10472 10471 10470 10468 10467 10466 10465 10463 10461 10459 10457 10455 10454 10454 10454 10453 10452 10450 10449 10448 10448 10448 10448 10448 10448 10448 10448
10541 10542 10544 10546 10546 10545 10545 10546 10546 10546 10545 10543 10541 10539 10538 10538 10538 10537 10536 10536 10535 10536 10537 10539 10539 10537 10535 10532 10529 10528 10528 10526 10524 10523 10522 10520 10518 10515 10513 10510 10508 10505 10503 10502 10500 10498 10496 10493 10489 10485 10482 10480 10477 10475 10473 10470 10468 10467 10465 10464 10463 10462 10461 10459 10458 10457 10456 10454 10452 10450 10449 10448 10447 10446 10445 10445 10445 10443 10442 10440 10440 10439 10439 10439 10440 10440 10440
10530 10530 10532 10533 10534 10534 10533 10534 10534 10534 10533 10531 10529 10526 10524 10523 10524 10524 10523 10522 10522 10522 10523 10524 10524 10523 10521 10518 10516 10516 10516 10515 10513 10511 10510 10507 10505 10502 10499 10497 10495 10493 10491 10490 10489 10488 10485 10481 10477 10475 10472 10470 10467 10465 10463 10461 10459 10457 10456 10455 10454 10453 10452 10451 10450 10448 10446 10445 10444 10442 10441 10440 10439 10438 10437 10437 10436 10436 10434 10433 10432 10432 10431 10431 10432 10432 10432
10517 10517 10518 10520 10521 10521 10520 10520 10520 10520 10520 10518 10516 10514 10512 10512 10511 10511 10511 10510 10509 10509 10510 10510 10509 10508 10507 10506 10504 10504 10503 10502 10501 10499 10497 10495 10492 10489 10487 10486 10484 10482 10480 10479 10479 10477 10474 10471 10468 10466 10464 10461 10458 10456 10453 10452 10450 10449 10448 10447 10446 10445 10444 10443 10441 10440 10438 10436 10435 10434 10433 10432 10431 10430 10430 10429 10428 10427 10426 10426 10425 10425 10424 10424 10424 10424 10424
10503 10504 10504 10505 10507 10507 10506 10506 10506 10505 10505 10504 10503 10502 10501 10500 10500 10500 10500 10499 10498 10498 10498 10497 10496 10495 10495 10494 10494 10493 10491 10490 10489 10487 10485 10483 10480 10477 10476 10475 10474 10472 10471 10470 10468 10466 10464 10462 10459 10457 10454 10452 10449 10447 10446 10444 10443 10442 10440 10439 10438 10437 10436 10435 10433 10431 10430 10428 10427 10426 10425 10424 10423 10422 10422 10421 10420 10419 10418 10418 10418 10417 10417 10417 10417 10417 10417
10489 10489 10489 10490 10491 10492 10492 10491 10491 10490 10490 10490 10490 10490 10489 10489 10489 10489 10488 10487 10487 10487 10487 10486 10484 10482 10482 10482 10482 10482 10480 10478 10477 10476 10474 10472 10470 10468 10466 10465 10464 10463 10461 10460 10458 10457 10455 10453 10450 10448 10446 10444 10441 10440 10438 10437 10436 10434 10433 10432 10431 10430 10428 10427 10425 10424 10422 10421 10419 10418 10417 10417 10416 10415 10414 10413 10412 10412 10411 10411 10411 10410 10410 10410 10410 10409 10409
10473 10473 10473 10475 10476 10477 10476 10476 10477 10477 10477 10478 10478 10478 10478 10478 10477 10476 10475 10475 10475 10477 10477 10476 10473 10471 10470 10470 10470 10470 10469 10468 10467 10466 10464 10462 10461 10460 10458 10457 10455 10454 10452 10451 10450 10449 10447 10445 10442 10440 10438 10436 10434 10433 10431 10430 10428 10427 10426 10425 10424 10422 10420 10419 10417 10416 10414 10413 10412 10411 10410 10410 10409 10408 10407 10407 10406 10405 10405 10404 10404 10404 10403 10403 10402 10402 10402
10457 10458 10459 10461 10462 10463 10463 10464 10465 10466 10466 10466 10467 10467 10466 10466 10465 10464 10464 10465 10465 10466 10467 10466 10464 10461 10461 10461 10460 10459 10458 10458 10457 10456 10455 10453 10452 10451 10449 10448 10447 10446 10444 10444 10443 10441 10439 10437 10435 10433 10431 10429 10427 10426 10425 10423 10422 10421 10419 10418 10416 10415 10413 10411 10410 10409 10407 10407 10406 10405 10404 10403 10403 10402 10402 10401 10400 10400 10399 10398 10398 10398 10397 10396 10396 10395 10395
10446 10447 10449 10451 10453 10453 10453 10454 10455 10456 10456 10456 10457 10457 10457 10456 10456 10455 10455 10456 10456 10456 10456 10455 10454 10452 10452 10451 10450 10449 10449 10449 10448 10447 10446 10444 10443 10442 10441 10440 10439 10438 10437 10436 10435 10433 10432 10430 10427 10425 10423 10422 10420 10419 10418 10417 10415 10414 10413 10412 10410 10408 10406 10405 10403 10402 10401 10401 10400 10399 10398 10398 10397 10396 10396 10395 10395 10394 10393 10392 10392 10391 10390 10390 10389 10388 10388
10438 10440 10441 10443 10445 10445 10446 10446 10447 10447 10448 10448 10448 10448 10448 10448 10448 10448 10448 10448 10447 10447 10446 10445 10445 10444 10443 10442 10441 10441 10440 10439 10439 10438 10437 10436 10436 10435 10433 10433 10432 10431 10429 10428 10427 10425 10423 10421 10419 10418 10416 10415 10414 10412 10411 10410 10409 10408 10407 10405 10403 10401 10400 10399 10398 10397 10396 10396 10395 10394 10393 10393 10392 10391 10390 10390 10389 10388 10387 10386 10385 10385 10384 10383 10382 10381 10380
10432 10434 10435 10436 10437 10438 10439 10439 10440 10440 10441 10442 10442 10442 10442 10442 10441 10441 10440 10439 10439 10438 10438 10437 10436 10436 10435 10434 10434 10433 10432 10432 10431 10430 10430 10429 10428 10427 10426 10425 10424 10423 10422 10421 10419 10417 10415 10413 10411 10410 10409 10408 10407 10405 10404 10403 10402 10401 10400 10399 10397 10396 10395 10394 10393 10392 10391 10391 10390 10389 10389 10388 10387 10386 10385 10384 10383 10382 10381 10380 10379 10378 10377 10376 10374 10373 10373
10427 10429 10430 10431 10432 10432 10433 10434 10435 10435 10435 10435 10435 10435 10435 10434 10434 10433 10432 10432 10431 10431 10430 10430 10429 10429 10428 10427 10427 10426 10426 10425 10424 10424 10423 10422 10421 10420 10419 10418 10416 10415 10415 10413 10412 10410 10407 10405 10404 10403 10402 10401 10400 10398 10397 10396 10395 10394 10394 10393 10392 10391 10390 10389 10388 10387 10386 10386 10385 10384 10383 10382 10381 10380 10379 10378 10377 10376 10374 10373 10372 10371 10370 10369 10367 10366 10365
10424 10426 10428 10429 10430 10430 10430 10431 10431 10431 10431 10430 10429 10429 10429 10428 10427 10427 10426 10425 10425 10424 10424 10423 10423 10422 10422 10421 10421 10420 10419 10419 10418 10417 10416 10415 10414 10412 10411 10410 10409 10408 10407 10406 10404 10402 10399 10398 10397 10396 10396 10395 10393 10392 10391 10390 10389 10388 10388 10388 10387 10386 10385 10384 10383 10382 10382 10381 10380 10379 10378 10377 10376 10375 10374 10373 10371 10370 10368 10367 10365 10364 10363 10362 10361 10360 10359
10421 10423 10425 10426 10427 10427 10427 10428 10428 10427 10427 10426 10425 10424 10424 10423 10422 10421 10420 10420 10419 10419 10418 10418 10417 10417 10416 10415 10414 10413 10413 10412 10412 10411 10410 10408 10407 10406 10405 10403 10402 10401 10400 10399 10397 10395 10393 10392 10391 10390 10390 10389 10388 10387 10386 10385 10384 10383 10383 10382 10382 10381 10380 10380 10379 10378 10377 10376 10375 10374 10373 10372 10371 10369 10368 10367 10365 10363 10362 10360 10358 10357 10356 10355 10354 10353 10352
10420 10421 10422 10422 10423 10424 10424 10424 10423 10422 10422 10421 10421 10420 10419 10418 10417 10416 10416 10415 10414 10414 10413 10412 10412 10411 10410 10409 10408 10407 10407 10407 10406 10405 10403 10401 10400 10399 10398 10397 10396 10395 10394 10392 10391 10389 10388 10387 10386 10385 10384 10384 10384 10383 10382 10381 10380 10379 10378 10378 10377 10376 10375 10375 10374 10373 10372 10371 10370 10369 10368 10367 10365 10364 10362 10361 10359 10358 10356 10354 10352 10351 10350 10348 10347 10346 10345
10418 10419 10419 10419 10419 10420 10420 10419 10418 10418 10417 10417 10416 10415 10414 10413 10412 10412 10411 10410 10409 10409 10408 10407 10406 10405 10403 10402 10402 10402 10401 10401 10399 10398 10397 10396 10395 10393 10392 10390 10389 10388 10387 10386 10385 10384 10384 10383 10381 10380 10379 10379 10379 10378 10377 10376 10375 10374 10373 10373 10372 10371 10370 10370 10369 10368 10367 10366 10365 10364 10362 10361 10360 10358 10357 10355 10354 10352 10351 10349 10347 10345 10344 10343 10341 10340 10339